VLG13KX LEBL-GCXO

Flight info

Callsign VLG13KX
Flight time 3h 2m
Altitude 35000
Route LOTOS DCT TORDU DCT DIKUT DCT SOPET DCT VLC DCT SERRA DCT ASTRO DCT POBOS DCT XEBAR DCT YES DCT BLN DCT KUKAL DCT ALCOL DCT VULPE DCT AMOTA DCT SVL DCT PIMUR DCT ONUBA DCT NAPES DCT OSLEP DCT MINTA DCT BAROK UN873 SAMAR
Aircraft A320/M-SDE3FGHIRWY/LB1

Departure

Time 2026-04-27 03:51
Airport Josep Tarradellas Barcelona-El Prat Airport (LEBL)

Arrival

Time 2026-04-27 06:54
Airport Tenerife Norte-Ciudad de La Laguna Airport (GCXO)
Time Latitude Longitude Altitude Speed Heading
2026-04-27 03:12 41.29174 2.08013 19 ft 0 kts 155°
2026-04-27 03:35 41.29183 2.08007 20 ft 4 kts 155°
2026-04-27 03:35 41.29207 2.07993 20 ft 4 kts 155°
2026-04-27 03:35 41.29228 2.07980 20 ft 4 kts 144°
2026-04-27 03:35 41.29239 2.07956 19 ft 4 kts 83°
2026-04-27 03:36 41.29232 2.07924 22 ft 3 kts 65°
2026-04-27 03:36 41.29225 2.07904 21 ft 0 kts 65°
2026-04-27 03:38 41.29229 2.07914 21 ft 3 kts 66°
2026-04-27 03:38 41.29248 2.07972 19 ft 10 kts 65°
2026-04-27 03:38 41.29284 2.08074 20 ft 13 kts 65°
2026-04-27 03:38 41.29324 2.08190 20 ft 14 kts 65°
2026-04-27 03:39 41.29365 2.08313 19 ft 15 kts 66°
2026-04-27 03:39 41.29449 2.08329 17 ft 15 kts 335°
2026-04-27 03:39 41.29548 2.08269 16 ft 16 kts 336°
2026-04-27 03:39 41.29640 2.08224 16 ft 10 kts 15°
2026-04-27 03:40 41.29678 2.08309 16 ft 13 kts 66°
2026-04-27 03:40 41.29717 2.08424 17 ft 14 kts 66°
2026-04-27 03:40 41.29753 2.08531 17 ft 15 kts 66°
2026-04-27 03:40 41.29792 2.08642 17 ft 15 kts 65°
2026-04-27 03:41 41.29832 2.08772 18 ft 18 kts 70°
2026-04-27 03:41 41.29886 2.08920 21 ft 19 kts 67°
2026-04-27 03:41 41.29947 2.09096 17 ft 19 kts 66°
2026-04-27 03:41 41.30004 2.09260 18 ft 20 kts 65°
2026-04-27 03:42 41.30063 2.09435 16 ft 21 kts 65°
2026-04-27 03:42 41.30126 2.09616 16 ft 22 kts 65°
2026-04-27 03:42 41.30190 2.09804 18 ft 22 kts 65°
2026-04-27 03:42 41.30245 2.09968 16 ft 16 kts 65°
2026-04-27 03:43 41.30290 2.10097 17 ft 14 kts 65°
2026-04-27 03:43 41.30329 2.10211 16 ft 13 kts 65°
2026-04-27 03:43 41.30362 2.10308 17 ft 11 kts 65°
2026-04-27 03:43 41.30390 2.10387 18 ft 8 kts 63°
2026-04-27 03:44 41.30416 2.10382 16 ft 4 kts 335°
2026-04-27 03:44 41.30434 2.10372 16 ft 0 kts 338°
2026-04-27 03:49 41.30442 2.10368 16 ft 6 kts 338°
2026-04-27 03:49 41.30519 2.10322 16 ft 13 kts 336°
2026-04-27 03:49 41.30540 2.10280 16 ft 2 kts 241°
2026-04-27 03:50 41.30539 2.10277 16 ft 0 kts 246°
2026-04-27 03:50 41.30494 2.10146 17 ft 48 kts 245°
2026-04-27 03:50 41.30263 2.09471 19 ft 111 kts 245°
2026-04-27 03:51 41.29866 2.08317 28 ft 160 kts 245°
2026-04-27 03:51 41.29379 2.06899 436 ft 171 kts 246°
2026-04-27 03:51 41.28890 2.05451 1130 ft 171 kts 246°
2026-04-27 03:51 41.28398 2.04016 1726 ft 174 kts 247°
2026-04-27 03:52 41.27870 2.02472 2064 ft 192 kts 246°
2026-04-27 03:52 41.27299 2.00786 2425 ft 207 kts 247°
2026-04-27 03:52 41.26681 1.98967 2736 ft 227 kts 244°
2026-04-27 03:52 41.25730 1.97176 3045 ft 251 kts 220°
2026-04-27 03:53 41.24270 1.95792 3622 ft 262 kts 212°
2026-04-27 03:53 41.22697 1.94514 4395 ft 267 kts 210°
2026-04-27 03:53 41.21095 1.93222 5172 ft 272 kts 211°
2026-04-27 03:53 41.19485 1.91867 5926 ft 276 kts 212°
2026-04-27 03:54 41.17873 1.90449 6698 ft 280 kts 213°
2026-04-27 03:54 41.16253 1.88975 7422 ft 284 kts 214°
2026-04-27 03:54 41.14626 1.87464 8170 ft 287 kts 215°
2026-04-27 03:54 41.12989 1.85925 8935 ft 290 kts 216°
2026-04-27 03:55 41.11336 1.84363 9674 ft 294 kts 216°
2026-04-27 03:55 41.09733 1.82653 10344 ft 298 kts 226°
2026-04-27 03:55 41.08402 1.80457 10639 ft 317 kts 235°
2026-04-27 03:55 41.07086 1.77987 10817 ft 338 kts 235°
2026-04-27 03:56 41.05713 1.75405 11323 ft 346 kts 236°
2026-04-27 03:56 41.04309 1.72783 11952 ft 350 kts 235°
2026-04-27 03:56 41.02886 1.70140 12596 ft 354 kts 235°
2026-04-27 03:56 41.01450 1.67474 13255 ft 357 kts 235°
2026-04-27 03:57 41.00490 1.65701 13690 ft 358 kts 235°
2026-04-27 03:57 40.98535 1.62101 14482 ft 362 kts 235°
2026-04-27 03:57 40.97560 1.60305 14861 ft 364 kts 235°
2026-04-27 03:57 40.96115 1.57542 15438 ft 366 kts 240°
2026-04-27 03:58 40.95019 1.54507 16008 ft 367 kts 251°
2026-04-27 03:58 40.94010 1.50225 16748 ft 370 kts 253°
2026-04-27 03:58 40.93498 1.48020 17122 ft 372 kts 253°
2026-04-27 03:58 40.92731 1.44742 17679 ft 374 kts 253°
2026-04-27 03:59 40.91954 1.41449 18224 ft 377 kts 253°
2026-04-27 03:59 40.91168 1.38130 18725 ft 379 kts 253°
2026-04-27 03:59 40.90375 1.34794 19194 ft 382 kts 253°
2026-04-27 03:59 40.89576 1.31435 19632 ft 385 kts 253°
2026-04-27 04:00 40.88772 1.28046 20074 ft 388 kts 253°
2026-04-27 04:00 40.87978 1.24682 20517 ft 390 kts 253°
2026-04-27 04:00 40.87170 1.21253 20956 ft 392 kts 253°
2026-04-27 04:00 40.86282 1.17828 21379 ft 396 kts 246°
2026-04-27 04:01 40.84895 1.14680 21795 ft 399 kts 233°
2026-04-27 04:01 40.82997 1.11992 22220 ft 403 kts 221°
2026-04-27 04:01 40.80685 1.09883 22614 ft 407 kts 208°
2026-04-27 04:01 40.78053 1.08486 23011 ft 410 kts 196°
2026-04-27 04:02 40.75289 1.07501 23406 ft 413 kts 195°
2026-04-27 04:02 40.72506 1.06512 23784 ft 415 kts 195°
2026-04-27 04:02 40.69706 1.05524 24116 ft 418 kts 195°
2026-04-27 04:02 40.66887 1.04532 24457 ft 420 kts 195°
2026-04-27 04:03 40.64061 1.03530 24793 ft 421 kts 196°
2026-04-27 04:03 40.61225 1.02523 25129 ft 423 kts 196°
2026-04-27 04:03 40.58396 1.01437 25453 ft 424 kts 201°
2026-04-27 04:03 40.55719 0.99806 25769 ft 425 kts 211°
2026-04-27 04:04 40.53294 0.97589 26082 ft 425 kts 221°
2026-04-27 04:04 40.51174 0.94874 26393 ft 426 kts 229°
2026-04-27 04:04 40.49171 0.91999 26707 ft 428 kts 228°
2026-04-27 04:04 40.47151 0.89115 27012 ft 430 kts 228°
2026-04-27 04:05 40.45124 0.86224 27296 ft 432 kts 228°
2026-04-27 04:05 40.43083 0.83316 27602 ft 434 kts 228°
2026-04-27 04:05 40.41034 0.80397 27903 ft 436 kts 228°
2026-04-27 04:05 40.39003 0.77515 28201 ft 437 kts 228°
2026-04-27 04:06 40.36930 0.74582 28501 ft 439 kts 228°
2026-04-27 04:06 40.34850 0.71639 28804 ft 440 kts 228°
2026-04-27 04:06 40.32769 0.68688 29087 ft 442 kts 228°
2026-04-27 04:07 40.28584 0.62761 29625 ft 445 kts 228°
2026-04-27 04:07 40.26473 0.59778 29886 ft 447 kts 228°
2026-04-27 04:07 40.24358 0.56793 30118 ft 449 kts 228°
2026-04-27 04:07 40.22226 0.53793 30300 ft 451 kts 228°
2026-04-27 04:08 40.20079 0.50784 30510 ft 453 kts 228°
2026-04-27 04:08 40.17932 0.47771 30772 ft 453 kts 228°
2026-04-27 04:08 40.15793 0.44761 31096 ft 451 kts 228°
2026-04-27 04:08 40.13656 0.41756 31411 ft 450 kts 228°
2026-04-27 04:09 40.11531 0.38770 31711 ft 449 kts 228°
2026-04-27 04:09 40.09434 0.35824 32022 ft 448 kts 228°
2026-04-27 04:09 40.07316 0.32859 32322 ft 447 kts 228°
2026-04-27 04:09 40.05199 0.29895 32629 ft 446 kts 228°
2026-04-27 04:10 40.03086 0.26942 32932 ft 445 kts 228°
2026-04-27 04:10 40.00975 0.23999 33209 ft 444 kts 228°
2026-04-27 04:10 39.98867 0.21063 33498 ft 443 kts 228°
2026-04-27 04:10 39.96763 0.18133 33796 ft 442 kts 228°
2026-04-27 04:11 39.94667 0.15208 34105 ft 441 kts 228°
2026-04-27 04:11 39.92576 0.12295 34377 ft 440 kts 228°
2026-04-27 04:11 39.90483 0.09389 34594 ft 439 kts 228°
2026-04-27 04:11 39.88390 0.06491 34817 ft 439 kts 228°
2026-04-27 04:12 39.86295 0.03586 35026 ft 439 kts 228°
2026-04-27 04:12 39.84208 0.00683 35133 ft 438 kts 228°
2026-04-27 04:12 39.80079 -0.05047 35145 ft 436 kts 228°
2026-04-27 04:13 39.75922 -0.10786 35148 ft 436 kts 228°
2026-04-27 04:13 39.71766 -0.16507 35145 ft 436 kts 228°
2026-04-27 04:14 39.67611 -0.22235 35143 ft 436 kts 228°
2026-04-27 04:14 39.63440 -0.27952 35142 ft 436 kts 228°
2026-04-27 04:15 39.59269 -0.33668 35144 ft 436 kts 228°
2026-04-27 04:15 39.55101 -0.39370 35164 ft 436 kts 228°
2026-04-27 04:16 39.50930 -0.45058 35170 ft 435 kts 228°
2026-04-27 04:16 39.46995 -0.50986 35171 ft 434 kts 234°
2026-04-27 04:17 39.43394 -0.57184 35170 ft 434 kts 234°
2026-04-27 04:17 39.39741 -0.63396 35170 ft 434 kts 234°
2026-04-27 04:18 39.36080 -0.69607 35166 ft 434 kts 234°
2026-04-27 04:18 39.32420 -0.75808 35165 ft 434 kts 234°
2026-04-27 04:19 39.28758 -0.82011 35168 ft 434 kts 234°
2026-04-27 04:19 39.25108 -0.88211 35169 ft 434 kts 234°
2026-04-27 04:20 39.21445 -0.94393 35171 ft 434 kts 234°
2026-04-27 04:20 39.17782 -1.00563 35172 ft 433 kts 234°
2026-04-27 04:21 39.14115 -1.06735 35169 ft 433 kts 234°
2026-04-27 04:21 39.10456 -1.12896 35164 ft 433 kts 234°
2026-04-27 04:22 39.06783 -1.19036 35164 ft 432 kts 233°
2026-04-27 04:22 39.03112 -1.25156 35167 ft 432 kts 233°
2026-04-27 04:23 38.99443 -1.31278 35168 ft 432 kts 233°
2026-04-27 04:23 38.95800 -1.37352 35169 ft 432 kts 233°
2026-04-27 04:24 38.92132 -1.43464 35164 ft 432 kts 233°
2026-04-27 04:24 38.88467 -1.49569 35164 ft 432 kts 233°
2026-04-27 04:25 38.84791 -1.55658 35159 ft 431 kts 233°
2026-04-27 04:25 38.81114 -1.61729 35161 ft 431 kts 233°
2026-04-27 04:26 38.77437 -1.67794 35166 ft 430 kts 233°
2026-04-27 04:26 38.73761 -1.73845 35165 ft 430 kts 233°
2026-04-27 04:27 38.70080 -1.79889 35162 ft 430 kts 233°
2026-04-27 04:27 38.66396 -1.85928 35155 ft 430 kts 233°
2026-04-27 04:28 38.62720 -1.91963 35148 ft 430 kts 234°
2026-04-27 04:28 38.59034 -1.97993 35147 ft 430 kts 233°
2026-04-27 04:29 38.55365 -2.03976 35141 ft 431 kts 233°
2026-04-27 04:29 38.51664 -2.09992 35138 ft 431 kts 233°
2026-04-27 04:30 38.47961 -2.16008 35138 ft 431 kts 233°
2026-04-27 04:30 38.44260 -2.22020 35144 ft 431 kts 233°
2026-04-27 04:31 38.40556 -2.28034 35144 ft 431 kts 233°
2026-04-27 04:31 38.37068 -2.34220 35119 ft 428 kts 244°
2026-04-27 04:32 38.35116 -2.41313 35124 ft 424 kts 261°
2026-04-27 04:32 38.33969 -2.48685 35107 ft 425 kts 260°
2026-04-27 04:33 38.32782 -2.56064 35111 ft 425 kts 260°
2026-04-27 04:33 38.31589 -2.63443 35101 ft 426 kts 260°
2026-04-27 04:34 38.30402 -2.70827 35101 ft 426 kts 259°
2026-04-27 04:34 38.29216 -2.78216 35095 ft 426 kts 259°
2026-04-27 04:35 38.28019 -2.85604 35099 ft 426 kts 259°
2026-04-27 04:35 38.26815 -2.92992 35101 ft 426 kts 259°
2026-04-27 04:36 38.25605 -3.00380 35102 ft 426 kts 259°
2026-04-27 04:36 38.24392 -3.07771 35091 ft 426 kts 259°
2026-04-27 04:37 38.23180 -3.15147 35101 ft 426 kts 259°
2026-04-27 04:37 38.21959 -3.22531 35099 ft 426 kts 259°
2026-04-27 04:38 38.20741 -3.29855 35099 ft 426 kts 259°
2026-04-27 04:38 38.19512 -3.37217 35094 ft 426 kts 259°
2026-04-27 04:39 38.18269 -3.44592 35091 ft 426 kts 259°
2026-04-27 04:39 38.17029 -3.51958 35087 ft 426 kts 259°
2026-04-27 04:40 38.15792 -3.59312 35091 ft 426 kts 259°
2026-04-27 04:40 38.13955 -3.66453 35093 ft 427 kts 249°
2026-04-27 04:41 38.11664 -3.73404 35080 ft 426 kts 249°
2026-04-27 04:41 38.09388 -3.80351 35085 ft 426 kts 249°
2026-04-27 04:42 38.07115 -3.87282 35077 ft 425 kts 249°
2026-04-27 04:42 38.04826 -3.94211 35080 ft 425 kts 249°
2026-04-27 04:43 38.02537 -4.01123 35078 ft 425 kts 249°
2026-04-27 04:43 38.00249 -4.08032 35080 ft 425 kts 249°
2026-04-27 04:44 37.97952 -4.14932 35081 ft 425 kts 249°
2026-04-27 04:44 37.95670 -4.21783 35078 ft 425 kts 248°
2026-04-27 04:45 37.93371 -4.28675 35079 ft 425 kts 248°
2026-04-27 04:45 37.91066 -4.35560 35079 ft 425 kts 248°
2026-04-27 04:46 37.88755 -4.42442 35076 ft 425 kts 248°
2026-04-27 04:46 37.86442 -4.49321 35067 ft 424 kts 248°
2026-04-27 04:47 37.84137 -4.56191 35071 ft 424 kts 248°
2026-04-27 04:47 37.81822 -4.63049 35073 ft 424 kts 248°
2026-04-27 04:48 37.79502 -4.69894 35064 ft 423 kts 248°
2026-04-27 04:48 37.77195 -4.76691 35063 ft 423 kts 248°
2026-04-27 04:49 37.74867 -4.83524 35068 ft 423 kts 248°
2026-04-27 04:49 37.72572 -4.90241 35063 ft 423 kts 248°
2026-04-27 04:50 37.70232 -4.97059 35061 ft 423 kts 247°
2026-04-27 04:50 37.67896 -5.03874 35063 ft 423 kts 247°
2026-04-27 04:51 37.65561 -5.10684 35061 ft 423 kts 247°
2026-04-27 04:51 37.63216 -5.17492 35060 ft 423 kts 247°
2026-04-27 04:52 37.60861 -5.24285 35058 ft 423 kts 247°
2026-04-27 04:52 37.58905 -5.29930 35049 ft 423 kts 247°
2026-04-27 04:53 37.56552 -5.36726 35042 ft 423 kts 246°
2026-04-27 04:53 37.54193 -5.43520 35048 ft 423 kts 246°
2026-04-27 04:54 37.51829 -5.50310 35039 ft 423 kts 246°
2026-04-27 04:54 37.49479 -5.57049 35039 ft 423 kts 246°
2026-04-27 04:55 37.47106 -5.63836 35013 ft 423 kts 246°
2026-04-27 04:55 37.44326 -5.71759 35005 ft 423 kts 246°
2026-04-27 04:56 37.42549 -5.77491 35002 ft 423 kts 255°
2026-04-27 04:56 37.41259 -5.84720 34997 ft 424 kts 257°
2026-04-27 04:57 37.39974 -5.91959 34998 ft 424 kts 257°
2026-04-27 04:57 37.38680 -5.99191 35000 ft 424 kts 257°
2026-04-27 04:58 37.37382 -6.06424 35005 ft 424 kts 257°
2026-04-27 04:58 37.36084 -6.13660 35011 ft 424 kts 256°
2026-04-27 04:59 37.34780 -6.20898 35013 ft 425 kts 256°
2026-04-27 04:59 37.33466 -6.28141 35015 ft 425 kts 256°
2026-04-27 05:00 37.32160 -6.35338 35019 ft 425 kts 256°
2026-04-27 05:00 37.30839 -6.42570 35014 ft 425 kts 256°
2026-04-27 05:01 37.29510 -6.49808 35011 ft 425 kts 256°
2026-04-27 05:01 37.28179 -6.57059 35005 ft 426 kts 256°
2026-04-27 05:02 37.26839 -6.64316 35010 ft 427 kts 256°
2026-04-27 05:03 37.24821 -6.75203 35006 ft 427 kts 256°
2026-04-27 05:03 37.23465 -6.82463 35005 ft 427 kts 256°
2026-04-27 05:04 37.22107 -6.89714 35009 ft 427 kts 255°
2026-04-27 05:04 37.20745 -6.96976 35007 ft 428 kts 255°
2026-04-27 05:05 37.19380 -7.04232 35008 ft 428 kts 255°
2026-04-27 05:05 37.18005 -7.11494 35006 ft 428 kts 255°
2026-04-27 05:06 37.16636 -7.18696 35006 ft 428 kts 255°
2026-04-27 05:06 37.15250 -7.25946 35007 ft 427 kts 255°
2026-04-27 05:07 37.13868 -7.33188 35004 ft 427 kts 255°
2026-04-27 05:07 37.12068 -7.40249 35001 ft 425 kts 242°
2026-04-27 05:08 37.09298 -7.46779 34995 ft 425 kts 240°
2026-04-27 05:08 37.06527 -7.53319 34996 ft 425 kts 240°
2026-04-27 05:09 37.03754 -7.59856 35002 ft 425 kts 240°
2026-04-27 05:09 37.00967 -7.66400 35001 ft 426 kts 240°
2026-04-27 05:10 36.98179 -7.72935 34993 ft 426 kts 240°
2026-04-27 05:10 36.95384 -7.79472 34992 ft 426 kts 240°
2026-04-27 05:11 36.92583 -7.86009 34993 ft 427 kts 240°
2026-04-27 05:11 36.89772 -7.92553 34996 ft 427 kts 240°
2026-04-27 05:12 36.86963 -7.99087 35001 ft 427 kts 240°
2026-04-27 05:12 36.84163 -8.05581 35002 ft 427 kts 240°
2026-04-27 05:13 36.81342 -8.12105 35003 ft 427 kts 240°
2026-04-27 05:13 36.78516 -8.18636 35000 ft 427 kts 240°
2026-04-27 05:14 36.75688 -8.25151 35007 ft 427 kts 240°
2026-04-27 05:14 36.72861 -8.31665 35001 ft 427 kts 240°
2026-04-27 05:15 36.70029 -8.38161 35005 ft 427 kts 239°
2026-04-27 05:15 36.67193 -8.44660 35001 ft 427 kts 239°
2026-04-27 05:16 36.64358 -8.51154 34998 ft 427 kts 239°
2026-04-27 05:16 36.61513 -8.57649 34992 ft 427 kts 239°
2026-04-27 05:17 36.58665 -8.64140 34995 ft 427 kts 239°
2026-04-27 05:17 36.55827 -8.70587 34997 ft 428 kts 239°
2026-04-27 05:18 36.52971 -8.77073 35001 ft 428 kts 239°
2026-04-27 05:18 36.50108 -8.83556 34999 ft 428 kts 239°
2026-04-27 05:19 36.47237 -8.90041 35000 ft 428 kts 239°
2026-04-27 05:19 36.44365 -8.96525 35001 ft 428 kts 239°
2026-04-27 05:20 36.41486 -9.03007 35001 ft 428 kts 239°
2026-04-27 05:20 36.38606 -9.09473 35004 ft 428 kts 239°
2026-04-27 05:21 36.35723 -9.15946 35001 ft 428 kts 239°
2026-04-27 05:21 36.32844 -9.22412 34997 ft 428 kts 239°
2026-04-27 05:22 36.29951 -9.28870 34998 ft 428 kts 239°
2026-04-27 05:22 36.27051 -9.35313 34995 ft 428 kts 238°
2026-04-27 05:23 36.24176 -9.41725 34993 ft 428 kts 239°
2026-04-27 05:23 36.21282 -9.48171 35001 ft 428 kts 239°
2026-04-27 05:24 36.18369 -9.54606 34994 ft 428 kts 238°
2026-04-27 05:24 36.15451 -9.61031 34988 ft 429 kts 239°
2026-04-27 05:25 36.12546 -9.67475 34986 ft 429 kts 239°
2026-04-27 05:25 36.09636 -9.73907 34981 ft 429 kts 238°
2026-04-27 05:26 36.06716 -9.80328 34999 ft 428 kts 238°
2026-04-27 05:26 36.03794 -9.86740 34993 ft 428 kts 238°
2026-04-27 05:27 36.00888 -9.93104 34986 ft 428 kts 238°
2026-04-27 05:27 35.97940 -9.99480 34983 ft 427 kts 234°
2026-04-27 05:28 35.93975 -10.04836 34975 ft 422 kts 216°
2026-04-27 05:28 35.89292 -10.09185 34972 ft 422 kts 216°
2026-04-27 05:29 35.84607 -10.13545 34975 ft 422 kts 216°
2026-04-27 05:29 35.79922 -10.17893 34970 ft 422 kts 216°
2026-04-27 05:30 35.75238 -10.22228 34986 ft 421 kts 215°
2026-04-27 05:30 35.70557 -10.26554 34989 ft 420 kts 215°
2026-04-27 05:31 35.65879 -10.30873 34986 ft 420 kts 215°
2026-04-27 05:31 35.61205 -10.35173 34986 ft 420 kts 216°
2026-04-27 05:32 35.56525 -10.39473 34989 ft 420 kts 216°
2026-04-27 05:32 35.51879 -10.43740 34988 ft 420 kts 216°
2026-04-27 05:33 35.47203 -10.48038 34978 ft 420 kts 215°
2026-04-27 05:33 35.42479 -10.52372 34987 ft 429 kts 215°
2026-04-27 05:34 35.37682 -10.56760 34983 ft 430 kts 216°
2026-04-27 05:34 35.32872 -10.61147 34989 ft 430 kts 215°
2026-04-27 05:35 35.28068 -10.65519 34986 ft 430 kts 216°
2026-04-27 05:35 35.23273 -10.69879 34989 ft 429 kts 216°
2026-04-27 05:36 35.18489 -10.74242 34991 ft 428 kts 216°
2026-04-27 05:36 35.13714 -10.78587 34992 ft 428 kts 216°
2026-04-27 05:37 35.08960 -10.82892 34982 ft 428 kts 216°
2026-04-27 05:37 35.04178 -10.87214 34993 ft 428 kts 216°
2026-04-27 05:38 34.99388 -10.91541 34992 ft 428 kts 216°
2026-04-27 05:38 34.94605 -10.95851 35002 ft 428 kts 216°
2026-04-27 05:39 34.89819 -11.00168 34993 ft 428 kts 215°
2026-04-27 05:39 34.85034 -11.04472 35001 ft 428 kts 216°
2026-04-27 05:40 34.80248 -11.08780 34995 ft 428 kts 215°
2026-04-27 05:40 34.75459 -11.13066 34988 ft 428 kts 216°
2026-04-27 05:41 34.70660 -11.17347 34991 ft 428 kts 215°
2026-04-27 05:41 34.65874 -11.21639 34994 ft 428 kts 215°
2026-04-27 05:42 34.61087 -11.25937 34992 ft 428 kts 215°
2026-04-27 05:42 34.56301 -11.30229 34991 ft 428 kts 215°
2026-04-27 05:43 34.51545 -11.34488 35005 ft 428 kts 215°
2026-04-27 05:43 34.46751 -11.38777 35002 ft 428 kts 215°
2026-04-27 05:44 34.41954 -11.43066 34995 ft 428 kts 215°
2026-04-27 05:44 34.37162 -11.47348 34994 ft 428 kts 215°
2026-04-27 05:45 34.32363 -11.51632 34997 ft 428 kts 216°
2026-04-27 05:45 34.27563 -11.55912 34998 ft 429 kts 215°
2026-04-27 05:46 34.22756 -11.60175 34995 ft 429 kts 215°
2026-04-27 05:46 34.17952 -11.64442 35002 ft 429 kts 215°
2026-04-27 05:47 34.13139 -11.68712 35005 ft 429 kts 215°
2026-04-27 05:47 34.08330 -11.72975 35005 ft 429 kts 215°
2026-04-27 05:48 34.03546 -11.77196 35010 ft 429 kts 215°
2026-04-27 05:48 33.98727 -11.81438 35010 ft 429 kts 215°
2026-04-27 05:49 33.93909 -11.85683 35013 ft 429 kts 215°
2026-04-27 05:49 33.89902 -11.89213 35013 ft 429 kts 215°
2026-04-27 05:50 33.85079 -11.93450 35014 ft 429 kts 215°
2026-04-27 05:50 33.80252 -11.97684 35016 ft 430 kts 215°
2026-04-27 05:51 33.75420 -12.01921 35015 ft 430 kts 215°
2026-04-27 05:51 33.70589 -12.06160 35027 ft 430 kts 215°
2026-04-27 05:52 33.65752 -12.10389 35021 ft 430 kts 214°
2026-04-27 05:52 33.60903 -12.14607 35017 ft 430 kts 215°
2026-04-27 05:53 33.56058 -12.18827 35019 ft 430 kts 215°
2026-04-27 05:53 33.51216 -12.23047 35027 ft 430 kts 215°
2026-04-27 05:54 33.46370 -12.27261 35021 ft 430 kts 215°
2026-04-27 05:54 33.41524 -12.31461 35023 ft 430 kts 214°
2026-04-27 05:55 33.36675 -12.35658 35034 ft 430 kts 214°
2026-04-27 05:55 33.31861 -12.39824 35030 ft 430 kts 214°
2026-04-27 05:56 33.27020 -12.44017 35033 ft 430 kts 214°
2026-04-27 05:56 33.22169 -12.48202 35038 ft 430 kts 214°
2026-04-27 05:57 33.17315 -12.52381 35033 ft 430 kts 214°
2026-04-27 05:57 33.12459 -12.56550 35028 ft 430 kts 214°
2026-04-27 05:58 33.07606 -12.60726 35026 ft 430 kts 214°
2026-04-27 05:58 33.02759 -12.64904 35028 ft 430 kts 214°
2026-04-27 05:59 32.97905 -12.69064 35028 ft 430 kts 214°
2026-04-27 05:59 32.93047 -12.73202 35027 ft 429 kts 214°
2026-04-27 06:00 32.85764 -12.79418 35037 ft 430 kts 214°
2026-04-27 06:00 32.80939 -12.83531 35033 ft 430 kts 214°
2026-04-27 06:01 32.76074 -12.87660 35035 ft 430 kts 214°
2026-04-27 06:01 32.71195 -12.91780 35033 ft 430 kts 214°
2026-04-27 06:02 32.66316 -12.95896 35033 ft 430 kts 214°
2026-04-27 06:02 32.61433 -13.00009 35035 ft 430 kts 214°
2026-04-27 06:03 32.56556 -13.04127 35036 ft 430 kts 214°
2026-04-27 06:03 32.51679 -13.08243 35037 ft 430 kts 214°
2026-04-27 06:04 32.46798 -13.12344 35036 ft 430 kts 214°
2026-04-27 06:04 32.41940 -13.16410 35037 ft 430 kts 214°
2026-04-27 06:05 32.37054 -13.20506 35032 ft 430 kts 214°
2026-04-27 06:05 32.32171 -13.24608 35029 ft 431 kts 214°
2026-04-27 06:06 32.27276 -13.28693 35027 ft 431 kts 214°
2026-04-27 06:06 32.22377 -13.32774 35031 ft 431 kts 214°
2026-04-27 06:07 32.17483 -13.36858 35034 ft 431 kts 214°
2026-04-27 06:07 32.12587 -13.40940 35036 ft 431 kts 214°
2026-04-27 06:08 32.07682 -13.45016 35031 ft 431 kts 214°
2026-04-27 06:08 32.02778 -13.49088 35034 ft 431 kts 214°
2026-04-27 06:09 31.97869 -13.53155 35043 ft 431 kts 214°
2026-04-27 06:09 31.92955 -13.57224 35037 ft 432 kts 214°
2026-04-27 06:10 31.88047 -13.61290 35027 ft 432 kts 215°
2026-04-27 06:10 31.83163 -13.65327 35035 ft 432 kts 214°
2026-04-27 06:11 31.78245 -13.69381 35037 ft 432 kts 214°
2026-04-27 06:11 31.73328 -13.73437 35034 ft 432 kts 214°
2026-04-27 06:12 31.68413 -13.77488 35035 ft 432 kts 214°
2026-04-27 06:12 31.63489 -13.81529 35033 ft 432 kts 214°
2026-04-27 06:13 31.58566 -13.85570 35030 ft 432 kts 213°
2026-04-27 06:13 31.53640 -13.89602 35032 ft 432 kts 215°
2026-04-27 06:14 31.48707 -13.93631 35037 ft 432 kts 215°
2026-04-27 06:14 31.43806 -13.97633 35042 ft 432 kts 215°
2026-04-27 06:15 31.38874 -14.01665 35035 ft 432 kts 215°
2026-04-27 06:15 31.33937 -14.05692 35036 ft 432 kts 215°
2026-04-27 06:16 31.29007 -14.09713 35041 ft 432 kts 215°
2026-04-27 06:16 31.24081 -14.13752 35039 ft 432 kts 214°
2026-04-27 06:17 31.19157 -14.17795 35030 ft 433 kts 214°
2026-04-27 06:17 31.14226 -14.21823 35031 ft 433 kts 215°
2026-04-27 06:18 31.09285 -14.25848 35021 ft 434 kts 215°
2026-04-27 06:18 31.04329 -14.29883 35021 ft 435 kts 216°
2026-04-27 06:19 30.99394 -14.33897 35023 ft 436 kts 215°
2026-04-27 06:19 30.94418 -14.37940 35029 ft 436 kts 215°
2026-04-27 06:20 30.89440 -14.41987 35034 ft 436 kts 215°
2026-04-27 06:20 30.84451 -14.46020 35035 ft 437 kts 215°
2026-04-27 06:21 30.79449 -14.50049 35032 ft 437 kts 215°
2026-04-27 06:21 30.74452 -14.54072 35038 ft 437 kts 215°
2026-04-27 06:22 30.69447 -14.58093 35040 ft 437 kts 215°
2026-04-27 06:22 30.64434 -14.62113 35028 ft 438 kts 215°
2026-04-27 06:23 30.59442 -14.66118 35032 ft 439 kts 216°
2026-04-27 06:23 30.54410 -14.70151 35034 ft 440 kts 215°
2026-04-27 06:24 30.49360 -14.74180 35036 ft 440 kts 215°
2026-04-27 06:24 30.44314 -14.78210 35039 ft 441 kts 215°
2026-04-27 06:25 30.39266 -14.82248 35045 ft 441 kts 215°
2026-04-27 06:25 30.34214 -14.86280 35042 ft 442 kts 215°
2026-04-27 06:26 30.29151 -14.90312 35039 ft 442 kts 215°
2026-04-27 06:26 30.24079 -14.94337 35063 ft 442 kts 215°
2026-04-27 06:27 30.19006 -14.98365 35044 ft 443 kts 216°
2026-04-27 06:27 30.13925 -15.02398 35044 ft 443 kts 215°
2026-04-27 06:28 30.08871 -15.06394 35044 ft 443 kts 215°
2026-04-27 06:28 30.03782 -15.10413 35042 ft 443 kts 215°
2026-04-27 06:29 29.98691 -15.14434 35048 ft 443 kts 215°
2026-04-27 06:29 29.93605 -15.18450 35042 ft 443 kts 216°
2026-04-27 06:30 29.88514 -15.22464 35059 ft 443 kts 215°
2026-04-27 06:30 29.83419 -15.26472 35059 ft 443 kts 215°
2026-04-27 06:31 29.78323 -15.30473 35048 ft 443 kts 216°
2026-04-27 06:31 29.73274 -15.34426 34916 ft 432 kts 216°
2026-04-27 06:32 29.70808 -15.36362 34684 ft 428 kts 214°
2026-04-27 06:32 29.68353 -15.38287 34395 ft 424 kts 215°
2026-04-27 06:32 29.65922 -15.40193 33869 ft 422 kts 215°
2026-04-27 06:32 29.63504 -15.42089 33336 ft 419 kts 214°
2026-04-27 06:33 29.61103 -15.43965 32832 ft 416 kts 215°
2026-04-27 06:33 29.58724 -15.45822 32332 ft 412 kts 215°
2026-04-27 06:33 29.56359 -15.47670 31845 ft 409 kts 215°
2026-04-27 06:33 29.54014 -15.49500 31353 ft 406 kts 215°
2026-04-27 06:34 29.51711 -15.51294 30881 ft 404 kts 215°
2026-04-27 06:34 29.49392 -15.53097 30411 ft 401 kts 215°
2026-04-27 06:34 29.47090 -15.54887 29907 ft 399 kts 215°
2026-04-27 06:34 29.44804 -15.56666 29442 ft 394 kts 216°
2026-04-27 06:35 29.42551 -15.58424 28989 ft 390 kts 216°
2026-04-27 06:35 29.40320 -15.60166 28559 ft 385 kts 216°
2026-04-27 06:35 29.38117 -15.61881 28137 ft 381 kts 215°
2026-04-27 06:35 29.35936 -15.63576 27702 ft 377 kts 215°
2026-04-27 06:36 29.33773 -15.65254 27275 ft 373 kts 215°
2026-04-27 06:36 29.31636 -15.66914 26845 ft 370 kts 215°
2026-04-27 06:36 29.29516 -15.68561 26415 ft 367 kts 216°
2026-04-27 06:36 29.27409 -15.70195 25988 ft 364 kts 215°
2026-04-27 06:37 29.25318 -15.71817 25542 ft 362 kts 216°
2026-04-27 06:37 29.23235 -15.73428 25100 ft 360 kts 216°
2026-04-27 06:37 29.21159 -15.75033 24644 ft 359 kts 216°
2026-04-27 06:37 29.19095 -15.76632 24180 ft 358 kts 215°
2026-04-27 06:38 29.17032 -15.78230 23720 ft 358 kts 216°
2026-04-27 06:38 29.14967 -15.79826 23207 ft 357 kts 215°
2026-04-27 06:38 29.12915 -15.81411 22744 ft 355 kts 215°
2026-04-27 06:38 29.10875 -15.82987 22289 ft 353 kts 216°
2026-04-27 06:39 29.08845 -15.84556 21837 ft 351 kts 215°
2026-04-27 06:39 29.06825 -15.86118 21394 ft 350 kts 216°
2026-04-27 06:39 29.04814 -15.87671 20951 ft 348 kts 216°
2026-04-27 06:39 29.02813 -15.89214 20514 ft 347 kts 216°
2026-04-27 06:40 29.00816 -15.90755 20077 ft 346 kts 215°
2026-04-27 06:40 28.98852 -15.92267 19649 ft 344 kts 215°
2026-04-27 06:40 28.96868 -15.93793 19217 ft 344 kts 216°
2026-04-27 06:40 28.94887 -15.95316 18790 ft 343 kts 215°
2026-04-27 06:41 28.92906 -15.96838 18357 ft 343 kts 216°
2026-04-27 06:41 28.90928 -15.98357 17889 ft 342 kts 216°
2026-04-27 06:41 28.88960 -15.99871 17471 ft 340 kts 215°
2026-04-27 06:41 28.87005 -16.01376 17054 ft 339 kts 215°
2026-04-27 06:42 28.85055 -16.02873 16647 ft 338 kts 216°
2026-04-27 06:42 28.83106 -16.04365 16241 ft 337 kts 216°
2026-04-27 06:42 28.81162 -16.05855 15833 ft 337 kts 215°
2026-04-27 06:42 28.79219 -16.07348 15430 ft 336 kts 215°
2026-04-27 06:43 28.77277 -16.08838 15022 ft 336 kts 216°
2026-04-27 06:43 28.75334 -16.10329 14625 ft 337 kts 215°
2026-04-27 06:43 28.73391 -16.11818 14225 ft 337 kts 214°
2026-04-27 06:43 28.71443 -16.13307 13811 ft 338 kts 216°
2026-04-27 06:44 28.70152 -16.14293 13516 ft 338 kts 215°
2026-04-27 06:44 28.67575 -16.16262 12970 ft 336 kts 214°
2026-04-27 06:44 28.65633 -16.17745 12562 ft 335 kts 214°
2026-04-27 06:44 28.63703 -16.19220 12141 ft 331 kts 215°
2026-04-27 06:45 28.61825 -16.20652 11735 ft 319 kts 215°
2026-04-27 06:45 28.60012 -16.22032 11342 ft 308 kts 215°
2026-04-27 06:45 28.58202 -16.23252 10955 ft 298 kts 201°
2026-04-27 06:45 28.56215 -16.23708 10581 ft 289 kts 178°
2026-04-27 06:46 28.54903 -16.23519 10339 ft 287 kts 163°
2026-04-27 06:46 28.53113 -16.22544 9909 ft 289 kts 141°
2026-04-27 06:46 28.51768 -16.20858 9434 ft 289 kts 118°
2026-04-27 06:46 28.50977 -16.18771 8985 ft 287 kts 107°
2026-04-27 06:47 28.50271 -16.16640 8527 ft 288 kts 108°
2026-04-27 06:47 28.49561 -16.14509 8077 ft 288 kts 108°
2026-04-27 06:47 28.48872 -16.12467 7975 ft 265 kts 107°
2026-04-27 06:47 28.48234 -16.10592 7870 ft 245 kts 108°
2026-04-27 06:48 28.47375 -16.08995 7742 ft 234 kts 135°
2026-04-27 06:48 28.45982 -16.08134 7617 ft 231 kts 166°
2026-04-27 06:48 28.44363 -16.08212 7192 ft 239 kts 199°
2026-04-27 06:48 28.42808 -16.08878 6785 ft 239 kts 204°
2026-04-27 06:49 28.41515 -16.09995 6387 ft 234 kts 239°
2026-04-27 06:49 28.41012 -16.11682 6030 ft 223 kts 274°
2026-04-27 06:49 28.41335 -16.13339 5700 ft 210 kts 296°
2026-04-27 06:49 28.41839 -16.14828 5389 ft 201 kts 295°
2026-04-27 06:50 28.42319 -16.16283 5076 ft 193 kts 295°
2026-04-27 06:50 28.42783 -16.17677 4808 ft 185 kts 295°
2026-04-27 06:50 28.43228 -16.19014 4551 ft 177 kts 296°
2026-04-27 06:50 28.43658 -16.20302 4319 ft 172 kts 296°
2026-04-27 06:51 28.44068 -16.21536 4106 ft 162 kts 296°
2026-04-27 06:51 28.44456 -16.22700 3889 ft 154 kts 297°
2026-04-27 06:51 28.44831 -16.23825 3687 ft 151 kts 297°
2026-04-27 06:51 28.45201 -16.24933 3490 ft 150 kts 297°
2026-04-27 06:52 28.45569 -16.26037 3291 ft 149 kts 297°
2026-04-27 06:52 28.45934 -16.27132 3094 ft 147 kts 300°
2026-04-27 06:52 28.46292 -16.28210 2904 ft 144 kts 297°
2026-04-27 06:52 28.46643 -16.29267 2700 ft 143 kts 297°
2026-04-27 06:53 28.46995 -16.30326 2499 ft 143 kts 296°
2026-04-27 06:53 28.47342 -16.31376 2319 ft 141 kts 293°
2026-04-27 06:53 28.47688 -16.32396 2101 ft 139 kts 290°
2026-04-27 06:53 28.48005 -16.33393 2037 ft 120 kts 292°
2026-04-27 06:54 28.48249 -16.34103 2052 ft 72 kts 291°
2026-04-27 06:54 28.48373 -16.34475 2065 ft 38 kts 290°
2026-04-27 06:54 28.48455 -16.34720 2074 ft 29 kts 291°
2026-04-27 06:54 28.48514 -16.34903 2085 ft 21 kts 291°
2026-04-27 06:55 28.48569 -16.35066 2089 ft 24 kts 291°
2026-04-27 06:55 28.48657 -16.35246 2084 ft 25 kts 307°
2026-04-27 06:55 28.48736 -16.35321 2077 ft 10 kts 12°
2026-04-27 06:55 28.48754 -16.35278 2079 ft 6 kts 100°
2026-04-27 06:56 28.48743 -16.35240 2078 ft 4 kts 111°
2026-04-27 06:56 28.48735 -16.35216 2080 ft 4 kts 111°
2026-04-27 06:56 28.48716 -16.35157 2081 ft 12 kts 111°
2026-04-27 06:56 28.48690 -16.35083 2082 ft 9 kts 111°
2026-04-27 06:57 28.48666 -16.35011 2084 ft 10 kts 110°
2026-04-27 06:57 28.48643 -16.34941 2084 ft 10 kts 110°
2026-04-27 06:57 28.48618 -16.34865 2082 ft 12 kts 110°
2026-04-27 06:57 28.48585 -16.34767 2076 ft 13 kts 111°
2026-04-27 06:58 28.48568 -16.34715 2074 ft 0 kts 111°
2026-04-27 06:58 28.48565 -16.34707 2074 ft 5 kts 111°
2026-04-27 06:58 28.48543 -16.34641 2071 ft 11 kts 110°
2026-04-27 06:59 28.48521 -16.34568 2067 ft 8 kts 110°
2026-04-27 06:59 28.48512 -16.34539 2065 ft 0 kts 110°
2026-04-27 07:00 28.48515 -16.34527 2065 ft 3 kts 49°
2026-04-27 07:00 28.48547 -16.34508 2064 ft 7 kts 24°
2026-04-27 07:00 28.48599 -16.34485 2064 ft 8 kts 21°
2026-04-27 07:01 28.48620 -16.34476 2063 ft 0 kts 21°